Location: Unspecified
(48.7670°N, 0.0000°E)
Time: 16:19:44
(UTC+00:00)

Courier 1B - Pass Details

Date: 19 June 2019
Orbit: 963 x 1209 km, 28.3° (Epoch: 16 July)

Event Time Altitude Azimuth Distance (km) Brightness Sun altitude
Rises 21:08:32 0° 232° (SW) 3,996 10.7 -8.1°
Reaches altitude 10° 21:12:41 10° 211° (SSW) 3,077 9.9 -8.6°
Maximum altitude 21:16:46 15° 178° (S) 2,721 9.4 -9.0°
Enters shadow 21:20:27 11° 149° (SSE) 3,050 9.4 -9.4°
Drops below altitude 10° 21:20:55 10° 146° (SE) 3,131 - -9.4°
Sets 21:25:12 0° 125° (SE) 4,105 - -9.8°
